Track APRIZESAT 4 now! 10-day predictions APRIZESAT 4 is classified as:
1 35684U 09041D 23081.06910315 .00001227 00000-0 16643-3 0 9994 2 35684 98.2942 109.0579 0046422 179.2357 180.8933 14.80146009736174